Find Starlink 30759

NORAD ID: 58122 Int'l Des: 2023-162 Owner: SPXS Country: US Constellation: starlink operational
LEOCIRCULAR

現在のビュー

3D地球を読み込み中...

About Starlink 30759

Starlink 30759 (NORAD 58122) is a starlink constellation satellite (v2 mini) launched Oct 22, 2023 by SPXS of US. It operates in LEO, CIRCULAR orbit with a mass of 730.00 kg.

Starlink 30759について

説明を読み込み中...

次回通過

Passes for default location (London). Set your location on the main map for personalized predictions.

高度履歴

Loading altitude history...

軌道要素

1 58122U 23162E 26194.97989745 .00000154 00000-0 15146-4 0 9993
2 58122 43.0033 139.0977 0001832 264.2359 95.8284 15.27580928151633
Epoch: Jul 13, 2026 • Age: 12 hours

現在のステータス

高度 491.1 km
遠地点 / 近地点 N/A
速度 7.62 km/s
衛星直下点 -32.39°S, 16.44°W
打ち上げ日 Oct 22, 2023
運用期間 2.7 years
タイプ internet

技術仕様

分類 Payload
質量 730.00 kg
乾燥質量 700.00 kg
総質量 730.00 kg
長さ 0.30 m
直径 4.10 m
スパン 29.00 m
形状 Box + pan
製造者 SPXS
バスタイプ Starlink V2M
フェーズステータス In Orbit
所有者/国 SPXS/US

Most Searched